(77044) Galera-Rosillo = 1999 RQ105 = 2001 CE42

Discovered at La Palma on 2001-02-15 by La Palma.
(77044) Galera-Rosillo

Rebeca Galera-Rosillo (1988–2020) was a promising young Spanish scientist who earned her masters in astrophysics from the University of La Laguna. At the time of her death, she was close to defending her doctoral research on planetary nebulae at the Instituto de Astrofisica de Canarias. [Ref: WGSBN Bull. 1, #1, 20]

Orbit

Orbit type: Main Belt

Note: WebGL enabled browser required.

epoch2023-02-25.0
epoch JD2460000.5
perihelion date2021-07-14.41637
perihelion JD2459409.91637
argument of perihelion (°)233.87681
ascending node (°)192.57479
inclination (°)14.26942
eccentricity0.0995429
perihelion distance (AU)2.3483604
Tisserand w.r.t. Jupiter3.4
ΔV w.r.t. Earth (km/sec)10.6
semimajor axis (AU)2.6079649
mean anomaly (°)138.20783
mean daily motion (°/day)0.23401910
aphelion distance (AU)2.868
period (years)4.21
P-vector [x]0.40494933
P-vector [y]0.89795635
P-vector [z]0.17230912
Q-vector [x]-0.91276305
Q-vector [y]0.40806832
Q-vector [z]0.01854367
absolute magnitude15.42
phase slope0.15
uncertainty0
referenceMPO 745323
observations used1119
oppositions20
arc length (days)11576
first opposition used1991
last opposition used2023
residual rms (arc-secs)0.72
perturbers coarse indicatorM-v
perturbers precise indicator003Ek
first observation date used1991-10-10.0
last observation date used2023-06-20.0
computer nameMPCLINUX
JD of orbit computation2456937.357809
perihelion JD uncertainty (days)1.1678E-04
argument of perihelion uncertainty (°)3.2547E-05
ascending node uncertainty (°)1.4035E-05
inclination uncertainty (°)6.8681E-06
eccentricity uncertainty 5.0170E-08
perihelion distance uncertainty (AU)1.2799E-07
Minimum Orbit Intersection Distances (in AU)
for orbit epoch: 2460000.5, reference: E2023-M76
Mercury2.04515
Venus1.64109
Earth1.38526
Mars0.92444
Jupiter2.47963
Saturn6.77462
Uranus15.7638
Neptune27.4106

Observations

1145 total observations over interval: 1991 10 10.46596 – 2023 06 20.313220
These data are available for download (format description).

Date (UT) J2000 RA J2000 Dec Magn Location Ref
1991 10 10.46596 03 20 57.18 +08 42 53.5   691 – Steward Observatory, Kitt Peak-Spacewatch MPS 61070
1991 10 10.48487 03 20 56.71 +08 42 41.6 19.8 V 691 – Steward Observatory, Kitt Peak-Spacewatch MPS 61070
1991 10 10.50354 03 20 56.34 +08 42 30.1   691 – Steward Observatory, Kitt Peak-Spacewatch MPS 61070
1995 10 26.19607 00 46 45.54 +01 50 42.8   691 – Steward Observatory, Kitt Peak-Spacewatch MPS 49334
1995 10 26.21713 00 46 44.77 +01 50 29.6 18.8 V 691 – Steward Observatory, Kitt Peak-Spacewatch MPS 49334
1995 10 26.23829 00 46 43.96 +01 50 16.5   691 – Steward Observatory, Kitt Peak-Spacewatch MPS 49334
1999 09 08.33054 23 09 40.06 +05 27 31.1 17.9   704 – Lincoln Laboratory ETS, New Mexico MPS 6293
1999 09 08.34461 23 09 39.40 +05 27 22.4 18.2   704 – Lincoln Laboratory ETS, New Mexico MPS 6293
1999 09 08.35812 23 09 38.73 +05 27 15.5 18.5   704 – Lincoln Laboratory ETS, New Mexico MPS 6293
1999 09 08.37179 23 09 38.09 +05 27 06.3 17.7   704 – Lincoln Laboratory ETS, New Mexico MPS 6293
1999 09 08.38537 23 09 37.42 +05 27 00.2 18.4   704 – Lincoln Laboratory ETS, New Mexico MPS 6293
1999 09 09.26352 23 08 58.36 +05 17 56.9 18.8   704 – Lincoln Laboratory ETS, New Mexico MPS 6293
1999 09 09.27754 23 08 57.64 +05 17 49.2 19.2   704 – Lincoln Laboratory ETS, New Mexico MPS 6293
1999 09 09.29155 23 08 57.08 +05 17 39.6 19.4   704 – Lincoln Laboratory ETS, New Mexico MPS 6293
1999 09 09.30578 23 08 56.37 +05 17 31.1 19.3   704 – Lincoln Laboratory ETS, New Mexico MPS 6293
1999 09 09.32021 23 08 55.74 +05 17 21.6 19.3   704 – Lincoln Laboratory ETS, New Mexico MPS 6293
1999 10 01.21363 22 54 01.79 +01 14 07.6 18.9 R 703 – Catalina Sky Survey MPS 33314
1999 10 01.22596 22 54 01.39 +01 14 00.2 19.0 R 703 – Catalina Sky Survey MPS 33314
1999 10 01.23824 22 54 00.97 +01 13 52.5 18.9 R 703 – Catalina Sky Survey MPS 33314
1999 10 01.25053 22 54 00.81 +01 13 41.6 17.8 R 703 – Catalina Sky Survey MPS 33314
1999 10 13.236570 22 49 05.239 -00 51 05.08 19.35 V 645 – Apache Point-Sloan Digital Sky Survey MPS 79845
1999 10 13.240042 22 49 05.177 -00 51 07.13 20.20   645 – Apache Point-Sloan Digital Sky Survey MPS 79845
2000 12 23.38054 08 45 30.26 -03 19 50.2 19.1   704 – Lincoln Laboratory ETS, New Mexico MPS 26970
2000 12 23.39595 08 45 29.90 -03 19 53.9 19.3   704 – Lincoln Laboratory ETS, New Mexico MPS 26970
2000 12 23.42720 08 45 29.10 -03 19 59.8 19.1   704 – Lincoln Laboratory ETS, New Mexico MPS 26970
2000 12 23.44241 08 45 28.74 -03 20 01.3 18.9   704 – Lincoln Laboratory ETS, New Mexico MPS 26970
2000 12 30.47882 08 42 06.04 -03 35 45.6 18.7   608 – Haleakala-AMOS MPS 26970
2000 12 30.48980 08 42 05.66 -03 35 46.4 18.5   608 – Haleakala-AMOS MPS 26970
2000 12 30.49985 08 42 05.30 -03 35 47.2 18.5   608 – Haleakala-AMOS MPS 26970
2001 01 29.33995 08 18 22.82 -02 14 26.8 18.8   608 – Haleakala-AMOS MPS 26970
2001 01 29.35084 08 18 22.23 -02 14 22.7 19.4   608 – Haleakala-AMOS MPS 26970
2001 01 29.36168 08 18 21.65 -02 14 18.2 19.4   608 – Haleakala-AMOS MPS 26970
2001 02 14.88372 08 05 43.92 -00 02 35.3 18.6 V 209 – Asiago Observatory, Cima Ekar-ADAS MPS 31273
2001 02 14.89559 08 05 43.42 -00 02 28.7 18.2 V 209 – Asiago Observatory, Cima Ekar-ADAS MPS 31273
2001 02 14.91651 08 05 42.66 -00 02 17.8 18.1 V 209 – Asiago Observatory, Cima Ekar-ADAS MPS 31273
2001 02 15.03808 08 05 38.03 -00 01 10.3 20.5 R 950 – La Palma MPS 26970
2001 02 15.04108 08 05 37.90 -00 01 08.6   950 – La Palma MPS 26970
2001 02 15.04448 08 05 37.78 -00 01 06.8   950 – La Palma MPS 26970
2001 02 17.96623 08 03 56.10 +00 25 31.2   950 – La Palma MPS 26970
2001 02 17.96727 08 03 56.13 +00 25 31.8   950 – La Palma MPS 26970
2001 02 17.96925 08 03 56.00 +00 25 32.7   950 – La Palma MPS 26970
2001 02 17.97030 08 03 56.02 +00 25 33.4   950 – La Palma MPS 26970
2001 02 17.97456 08 03 55.80 +00 25 35.7   950 – La Palma MPS 26970
2001 02 17.97560 08 03 55.84 +00 25 36.4   950 – La Palma MPS 26970
2001 02 19.45835 08 03 08.65 +00 39 18.2 18.8   608 – Haleakala-AMOS MPS 26970
2001 02 19.46895 08 03 08.31 +00 39 24.0 19.2   608 – Haleakala-AMOS MPS 26970
2001 02 19.47908 08 03 07.98 +00 39 29.8 19.4   608 – Haleakala-AMOS MPS 26970
2002 04 16.40557 15 38 25.38 -07 53 33.3 19.7   704 – Lincoln Laboratory ETS, New Mexico MPS 54943
2002 04 16.41976 15 38 24.86 -07 53 27.0 19.8   704 – Lincoln Laboratory ETS, New Mexico MPS 54943
2002 04 16.44817 15 38 23.86 -07 53 13.5 19.9   704 – Lincoln Laboratory ETS, New Mexico MPS 54943
2002 05 08.28041 15 22 28.10 -05 00 02.7 19.3   704 – Lincoln Laboratory ETS, New Mexico MPS 54604
2002 05 08.29295 15 22 27.47 -04 59 57.1 19.4   704 – Lincoln Laboratory ETS, New Mexico MPS 54604
2002 05 08.30545 15 22 26.77 -04 59 51.8 19.4   704 – Lincoln Laboratory ETS, New Mexico MPS 54604
2002 05 08.31787 15 22 26.13 -04 59 45.8 19.8   704 – Lincoln Laboratory ETS, New Mexico MPS 54604
2002 05 08.33026 15 22 25.46 -04 59 40.2 19.3   704 – Lincoln Laboratory ETS, New Mexico MPS 54604
2003 09 18.13986 21 09 45.44 -01 30 58.0 19.1   644 – Palomar Mountain/NEAT MPS 84502
2003 09 18.16128 21 09 44.98 -01 31 10.2 19.3   644 – Palomar Mountain/NEAT MPS 84502
2003 09 18.18272 21 09 44.55 -01 31 22.5 19.2   644 – Palomar Mountain/NEAT MPS 84502
2003 09 23.38892 21 08 23.30 -02 19 49.9 20.5   608 – Haleakala-AMOS MPS 85147
2003 09 23.39989 21 08 23.16 -02 19 55.8 20.4   608 – Haleakala-AMOS MPS 85147
2003 09 23.41081 21 08 22.98 -02 20 02.0 20.6   608 – Haleakala-AMOS MPS 85147
2003 09 24.31751 21 08 13.32 -02 28 14.8 21.2   608 – Haleakala-AMOS MPS 85147
2003 09 24.32861 21 08 13.29 -02 28 20.9 20.2   608 – Haleakala-AMOS MPS 85147
2003 09 24.33918 21 08 13.07 -02 28 26.7 20.6   608 – Haleakala-AMOS MPS 85147
2003 11 20.07946 21 37 59.34 -07 07 14.1 20.6 V 691 – Steward Observatory, Kitt Peak-Spacewatch MPS 90927
2003 11 20.10162 21 38 00.77 -07 07 14.7 20.6 V 691 – Steward Observatory, Kitt Peak-Spacewatch MPS 90927
2003 11 20.12768 21 38 02.44 -07 07 15.2 20.7 V 691 – Steward Observatory, Kitt Peak-Spacewatch MPS 90927
2004 12 12.35713 06 46 28.30 -00 06 03.0 18.4   704 – Lincoln Laboratory ETS, New Mexico MPS 122521
2004 12 12.37164 06 46 27.55 -00 06 06.0 18.6   704 – Lincoln Laboratory ETS, New Mexico MPS 122521
2004 12 12.38603 06 46 26.85 -00 06 10.0 18.8   704 – Lincoln Laboratory ETS, New Mexico MPS 122521
2004 12 12.40056 06 46 26.15 -00 06 12.9 18.7   704 – Lincoln Laboratory ETS, New Mexico MPS 122521
2004 12 12.41968 06 46 25.21 -00 06 17.7 19.0   704 – Lincoln Laboratory ETS, New Mexico MPS 122521
2006 04 07.28586 14 13 40.32 -07 19 01.2 19.6 V 691 – Steward Observatory, Kitt Peak-Spacewatch MPS 168665
2006 04 07.30323 14 13 39.54 -07 18 51.6 19.6 V 691 – Steward Observatory, Kitt Peak-Spacewatch MPS 168665
2006 04 07.32058 14 13 38.85 -07 18 43.2 19.2 V 691 – Steward Observatory, Kitt Peak-Spacewatch MPS 168665
2006 04 19.24246 14 04 33.43 -05 28 24.3 19.0 R 699 – Lowell Observatory-LONEOS MPS 169683
2006 04 19.26988 14 04 32.01 -05 28 09.5   699 – Lowell Observatory-LONEOS MPS 169683
2006 04 19.29872 14 04 30.51 -05 27 53.2   699 – Lowell Observatory-LONEOS MPS 169683
2006 04 19.32895 14 04 28.97 -05 27 36.0   699 – Lowell Observatory-LONEOS MPS 169683
2006 04 24.30569 14 00 30.25 -04 42 47.9 19.3   704 – Lincoln Laboratory ETS, New Mexico MPS 170609
2006 04 24.31646 14 00 29.77 -04 42 43.3 19.8   704 – Lincoln Laboratory ETS, New Mexico MPS 170609
2006 04 24.32756 14 00 29.16 -04 42 37.0 19.7   704 – Lincoln Laboratory ETS, New Mexico MPS 170609
2006 04 24.33833 14 00 28.67 -04 42 31.7 19.5   704 – Lincoln Laboratory ETS, New Mexico MPS 170609
2006 04 27.31275 13 58 07.26 -04 16 41.9 19.6   704 – Lincoln Laboratory ETS, New Mexico MPS 170609
2006 04 27.32436 13 58 06.67 -04 16 36.1 19.8   704 – Lincoln Laboratory ETS, New Mexico MPS 170609
